{"data":{"norad_id":62135,"intl_designator":"2024-222X","name":"STARLINK-32545","alt_names":[],"object_type":"PAYLOAD","status":"ACTIVE","operator":null,"country":"US","launch_date":"2024-11-27","launch_site_code":"AFETR","launch_vehicle":null,"mission":null,"orbit_class":"UNKNOWN","rcs_meters":null,"size_class":null,"mass_kg":null,"dimensions":null,"purposes":["comms"],"wikipedia_slug":null,"has_3d_model":false,"image_url":null,"decayed_at":null,"tle_current":{"epoch":"2026-05-25T04:29:28.423392Z","epoch_age_seconds":62159,"freshness":"FRESH","line1":"1 62135U 24222X   26145.18713453  .00019743  00000+0  72414-3 0  9993","line2":"2 62135  43.0013  64.5598 0001366 268.0272  92.0424 15.27620727 84495","mean_motion":15.27620727,"eccentricity":0.0001366,"inclination_deg":43.0013,"raan_deg":64.5598,"arg_perigee_deg":268.0272,"mean_anomaly_deg":92.0424,"bstar":0.00072414,"rev_number":8449,"period_min":94.264235523167,"perigee_km":481.98992609705,"apogee_km":483.86436882214,"semimajor_km":6861.0641474596,"source":"CELESTRAK","updated_at":"2026-05-25T13:38:19.567569Z"}}}